Year,Month,Day,Hour,Minute,Value (Times are PST for temperature in C)
2013,06,24,06,20,15.00
2013,06,24,06,21,15.00
2013,06,24,06,22,15.00
2013,06,24,06,23,15.00
2013,06,24,06,24,15.00
2013,06,24,06,25,15.00
2013,06,24,06,26,15.00
2013,06,24,06,27,15.00
2013,06,24,06,28,15.00
2013,06,24,06,29,15.00
2013,06,24,06,30,15.00
2013,06,24,06,31,15.00
2013,06,24,06,32,15.00
2013,06,24,06,33,15.00
2013,06,24,06,34,15.00
2013,06,24,06,35,15.00
2013,06,24,06,36,15.00
2013,06,24,06,37,15.00
2013,06,24,06,38,15.00
2013,06,24,06,39,15.00
2013,06,24,06,40,15.00
2013,06,24,06,41,15.10
2013,06,24,06,42,15.10
2013,06,24,06,43,15.10
2013,06,24,06,44,15.10
2013,06,24,06,45,15.10
2013,06,24,06,46,15.10
2013,06,24,06,47,15.20
2013,06,24,06,48,15.20
2013,06,24,06,49,15.20
2013,06,24,06,50,15.20
2013,06,24,06,51,15.20
2013,06,24,06,52,15.20
2013,06,24,06,53,15.20
2013,06,24,06,54,15.20
2013,06,24,06,55,15.20
2013,06,24,06,56,15.20
2013,06,24,06,57,15.20
2013,06,24,06,58,15.20
2013,06,24,06,59,15.20
2013,06,24,07,00,15.20
2013,06,24,07,01,15.20
2013,06,24,07,02,15.30
2013,06,24,07,03,15.30
2013,06,24,07,04,15.30
2013,06,24,07,05,15.30
2013,06,24,07,06,15.20
2013,06,24,07,07,15.20
2013,06,24,07,08,15.20
2013,06,24,07,09,15.20
2013,06,24,07,10,15.30
2013,06,24,07,11,15.30
2013,06,24,07,12,15.30
2013,06,24,07,13,15.20
2013,06,24,07,14,15.20
2013,06,24,07,15,15.20
2013,06,24,07,16,15.10
2013,06,24,07,17,15.10
2013,06,24,07,18,15.10
2013,06,24,07,19,15.00
2013,06,24,07,20,15.00
2013,06,24,07,21,15.00
2013,06,24,07,22,15.00
2013,06,24,07,23,15.00
2013,06,24,07,24,15.00
2013,06,24,07,25,15.00
2013,06,24,07,26,15.00
2013,06,24,07,27,14.90
2013,06,24,07,28,14.90
2013,06,24,07,29,14.90
2013,06,24,07,30,14.90
2013,06,24,07,31,14.90
2013,06,24,07,32,14.90
2013,06,24,07,33,14.90
2013,06,24,07,34,14.80
2013,06,24,07,35,14.80
2013,06,24,07,36,14.80
2013,06,24,07,37,14.80
2013,06,24,07,38,14.80
2013,06,24,07,39,14.80
2013,06,24,07,40,14.80
2013,06,24,07,41,14.80
2013,06,24,07,42,14.80
2013,06,24,07,43,14.80
2013,06,24,07,44,14.80
2013,06,24,07,45,14.80
2013,06,24,07,46,14.80
2013,06,24,07,47,14.80
2013,06,24,07,48,14.80
2013,06,24,07,49,14.80
2013,06,24,07,50,14.80
2013,06,24,07,51,14.80
2013,06,24,07,52,14.80
2013,06,24,07,53,14.80
2013,06,24,07,54,14.80
2013,06,24,07,55,14.80
2013,06,24,07,56,14.80
2013,06,24,07,57,14.80
2013,06,24,07,58,14.80
2013,06,24,07,59,14.80
2013,06,24,08,00,14.80
2013,06,24,08,01,14.80
2013,06,24,08,02,14.80
2013,06,24,08,03,14.80
2013,06,24,08,04,14.80
2013,06,24,08,05,14.70
2013,06,24,08,06,14.70
2013,06,24,08,07,14.70
2013,06,24,08,08,14.70
2013,06,24,08,09,14.70
2013,06,24,08,10,14.70
2013,06,24,08,11,14.70
2013,06,24,08,12,14.70
2013,06,24,08,13,14.70
2013,06,24,08,14,14.70
2013,06,24,08,15,14.70
2013,06,24,08,16,14.70
2013,06,24,08,17,14.70
2013,06,24,08,18,14.70
2013,06,24,08,19,14.70
2013,06,24,08,20,14.60
2013,06,24,08,21,14.70
2013,06,24,08,22,14.70
2013,06,24,08,23,14.70
2013,06,24,08,24,14.70
2013,06,24,08,25,14.70
2013,06,24,08,26,14.70
2013,06,24,08,27,14.70
2013,06,24,08,28,14.70
2013,06,24,08,29,14.60
2013,06,24,08,30,14.60
2013,06,24,08,31,14.60
2013,06,24,08,32,14.60
2013,06,24,08,33,14.60
2013,06,24,08,34,14.60
2013,06,24,08,35,14.60
2013,06,24,08,36,14.60
2013,06,24,08,37,14.60
2013,06,24,08,38,14.60
2013,06,24,08,39,14.60
2013,06,24,08,40,14.60
2013,06,24,08,41,14.60
2013,06,24,08,42,14.60
2013,06,24,08,43,14.60
2013,06,24,08,44,14.60
2013,06,24,08,45,14.60
2013,06,24,08,46,14.70
2013,06,24,08,47,14.70
2013,06,24,08,48,14.70
2013,06,24,08,49,14.70
2013,06,24,08,50,14.70
2013,06,24,08,51,14.70
2013,06,24,08,52,14.70
2013,06,24,08,53,14.70
2013,06,24,08,54,14.70
2013,06,24,08,55,14.60
2013,06,24,08,56,14.60
2013,06,24,08,57,14.60
2013,06,24,08,58,14.60
2013,06,24,08,59,14.60
2013,06,24,09,00,14.50
2013,06,24,09,01,14.50
2013,06,24,09,02,14.50
2013,06,24,09,03,14.50
2013,06,24,09,04,14.40
2013,06,24,09,05,14.40
2013,06,24,09,06,14.40
2013,06,24,09,07,14.40
2013,06,24,09,08,14.40
2013,06,24,09,09,14.40
2013,06,24,09,10,14.40
2013,06,24,09,11,14.40
2013,06,24,09,12,14.40
2013,06,24,09,13,14.40
2013,06,24,09,14,14.40
2013,06,24,09,15,14.40
2013,06,24,09,16,14.40
2013,06,24,09,17,14.40
2013,06,24,09,18,14.40
2013,06,24,09,19,14.40
2013,06,24,09,20,14.40
2013,06,24,09,21,14.40
2013,06,24,09,22,14.40
2013,06,24,09,23,14.40
2013,06,24,09,24,14.40
2013,06,24,09,25,14.50
2013,06,24,09,26,14.50
2013,06,24,09,27,14.50
2013,06,24,09,28,14.50
2013,06,24,09,29,14.50
2013,06,24,09,30,14.60
2013,06,24,09,31,14.60
2013,06,24,09,32,14.60
2013,06,24,09,33,14.60
2013,06,24,09,34,14.70
2013,06,24,09,35,14.70
2013,06,24,09,36,14.70
2013,06,24,09,37,14.80
2013,06,24,09,38,14.80
2013,06,24,09,39,14.80
2013,06,24,09,40,14.80
2013,06,24,09,41,14.80
2013,06,24,09,42,14.80
2013,06,24,09,43,14.90
2013,06,24,09,44,14.90
2013,06,24,09,45,14.90
2013,06,24,09,46,15.00
2013,06,24,09,47,15.00
2013,06,24,09,48,15.10
2013,06,24,09,49,15.10
2013,06,24,09,50,15.10
2013,06,24,09,51,15.10
2013,06,24,09,52,15.10
2013,06,24,09,53,15.20
2013,06,24,09,54,15.20
2013,06,24,09,55,15.20
2013,06,24,09,56,15.30
2013,06,24,09,57,15.30
2013,06,24,09,58,15.30
2013,06,24,09,59,15.30
2013,06,24,10,00,15.30
2013,06,24,10,01,15.30
2013,06,24,10,02,15.30
2013,06,24,10,03,15.30
2013,06,24,10,04,15.40
2013,06,24,10,05,15.40
2013,06,24,10,06,15.40
2013,06,24,10,07,15.40
2013,06,24,10,08,15.40
2013,06,24,10,09,15.50
2013,06,24,10,10,15.50
2013,06,24,10,11,15.50
2013,06,24,10,12,15.50
2013,06,24,10,13,15.50
2013,06,24,10,14,15.60
2013,06,24,10,15,15.60
2013,06,24,10,16,15.60
2013,06,24,10,17,15.70
2013,06,24,10,18,15.70
2013,06,24,10,19,15.70
2013,06,24,10,20,15.70
2013,06,24,10,21,15.70
2013,06,24,10,22,15.70
2013,06,24,10,23,15.80
2013,06,24,10,24,15.80
2013,06,24,10,25,15.80
2013,06,24,10,26,15.80
2013,06,24,10,27,15.80
2013,06,24,10,28,15.80
2013,06,24,10,29,15.80
2013,06,24,10,30,15.80
2013,06,24,10,31,15.80
2013,06,24,10,32,15.80
2013,06,24,10,33,15.80
2013,06,24,10,34,15.80
2013,06,24,10,35,15.80
2013,06,24,10,36,15.70
2013,06,24,10,37,15.70
2013,06,24,10,38,15.80
2013,06,24,10,39,15.80
2013,06,24,10,40,15.80
2013,06,24,10,41,15.70
2013,06,24,10,42,15.70
2013,06,24,10,43,15.70
2013,06,24,10,44,15.70
2013,06,24,10,45,15.70
2013,06,24,10,46,15.70
2013,06,24,10,47,15.70
2013,06,24,10,48,15.80
2013,06,24,10,49,15.80
2013,06,24,10,50,15.80
2013,06,24,10,51,15.80
2013,06,24,10,52,15.80
2013,06,24,10,53,15.80
2013,06,24,10,54,15.80
2013,06,24,10,55,15.90
2013,06,24,10,56,15.90
2013,06,24,10,57,15.90
2013,06,24,10,58,15.90
2013,06,24,10,59,15.90
2013,06,24,11,00,15.90
2013,06,24,11,01,15.90
2013,06,24,11,02,15.90
2013,06,24,11,03,15.90
2013,06,24,11,04,15.90
2013,06,24,11,05,15.90
2013,06,24,11,06,15.90
2013,06,24,11,07,15.90
2013,06,24,11,08,15.90
2013,06,24,11,09,15.90
2013,06,24,11,10,16.10
2013,06,24,11,11,16.10
2013,06,24,11,12,16.10
2013,06,24,11,13,16.10
2013,06,24,11,14,16.10
2013,06,24,11,15,16.10
2013,06,24,11,16,15.90
2013,06,24,11,17,15.90
2013,06,24,11,18,15.80
2013,06,24,11,19,15.80
2013,06,24,11,20,15.80
2013,06,24,11,21,15.80
2013,06,24,11,22,15.80
2013,06,24,11,23,15.80
2013,06,24,11,24,15.80
2013,06,24,11,25,15.80
2013,06,24,11,26,15.80
2013,06,24,11,27,15.80
2013,06,24,11,28,15.80
2013,06,24,11,29,15.70
2013,06,24,11,30,15.70
2013,06,24,11,31,15.60
2013,06,24,11,32,15.60
2013,06,24,11,33,15.60
2013,06,24,11,34,15.50
2013,06,24,11,35,15.50
2013,06,24,11,36,15.50
2013,06,24,11,37,15.50
2013,06,24,11,38,15.50
2013,06,24,11,39,15.60
2013,06,24,11,40,15.60
2013,06,24,11,41,15.70
2013,06,24,11,42,15.70
2013,06,24,11,43,15.80
2013,06,24,11,44,15.70
2013,06,24,11,45,15.70
2013,06,24,11,46,15.70
2013,06,24,11,47,15.70
2013,06,24,11,48,15.60
2013,06,24,11,49,15.60
2013,06,24,11,50,15.60
2013,06,24,11,51,15.60
2013,06,24,11,52,15.60
2013,06,24,11,53,15.60
2013,06,24,11,54,15.60
2013,06,24,11,55,15.60
2013,06,24,11,56,15.60
2013,06,24,11,57,15.70
2013,06,24,11,58,15.70
2013,06,24,11,59,15.80
2013,06,24,12,00,15.80
2013,06,24,12,01,15.80
2013,06,24,12,02,15.80
2013,06,24,12,03,15.80
2013,06,24,12,04,15.80
2013,06,24,12,05,15.80
2013,06,24,12,06,15.80
2013,06,24,12,07,15.80
2013,06,24,12,08,15.70
2013,06,24,12,09,15.80
2013,06,24,12,10,15.80
2013,06,24,12,11,15.80
2013,06,24,12,12,15.80
2013,06,24,12,13,15.80
2013,06,24,12,14,15.80
2013,06,24,12,15,15.80
2013,06,24,12,16,15.80
2013,06,24,12,17,15.90
2013,06,24,12,18,15.90
2013,06,24,12,19,15.90
2013,06,24,12,20,15.90
2013,06,24,12,21,15.90
2013,06,24,12,22,15.90
2013,06,24,12,23,15.80
2013,06,24,12,24,15.80
2013,06,24,12,25,15.80
2013,06,24,12,26,15.80
2013,06,24,12,27,15.80
2013,06,24,12,28,15.80
2013,06,24,12,29,15.80
2013,06,24,12,30,15.80
2013,06,24,12,31,15.80
2013,06,24,12,32,15.80
2013,06,24,12,33,15.80
2013,06,24,12,34,15.80
2013,06,24,12,35,15.80
2013,06,24,12,36,15.80
2013,06,24,12,37,15.80
2013,06,24,12,38,15.80
2013,06,24,12,39,15.80
2013,06,24,12,40,15.80
2013,06,24,12,41,15.80
2013,06,24,12,42,15.80
2013,06,24,12,43,15.80
2013,06,24,12,44,15.80
2013,06,24,12,45,15.80
2013,06,24,12,46,15.80
2013,06,24,12,47,15.80
2013,06,24,12,48,15.80
2013,06,24,12,49,15.80
2013,06,24,12,50,15.80
2013,06,24,12,51,15.70
2013,06,24,12,52,15.70
2013,06,24,12,53,15.70
2013,06,24,12,54,15.70
2013,06,24,12,55,15.70
2013,06,24,12,56,15.70
2013,06,24,12,57,15.70
2013,06,24,12,58,15.70
2013,06,24,12,59,15.70
2013,06,24,13,00,15.80
2013,06,24,13,01,15.80
2013,06,24,13,02,15.70
2013,06,24,13,03,15.70
2013,06,24,13,04,15.70
2013,06,24,13,05,15.70
2013,06,24,13,06,15.60
2013,06,24,13,07,15.70
2013,06,24,13,08,15.70
2013,06,24,13,09,15.60
2013,06,24,13,10,15.60
2013,06,24,13,11,15.60
2013,06,24,13,12,15.70
2013,06,24,13,13,15.70
2013,06,24,13,14,15.70
2013,06,24,13,15,15.70
2013,06,24,13,16,15.70
2013,06,24,13,17,15.70
2013,06,24,13,18,15.80
2013,06,24,13,19,15.80
2013,06,24,13,20,15.80
2013,06,24,13,21,15.80
2013,06,24,13,22,15.80
2013,06,24,13,23,15.80
2013,06,24,13,24,15.80
2013,06,24,13,25,15.80
2013,06,24,13,26,15.80
2013,06,24,13,27,15.80
2013,06,24,13,28,15.80
2013,06,24,13,29,15.80
2013,06,24,13,30,15.80
2013,06,24,13,31,15.80
2013,06,24,13,32,15.80
2013,06,24,13,33,15.80
2013,06,24,13,34,15.80
2013,06,24,13,35,15.80
2013,06,24,13,36,15.80
2013,06,24,13,37,15.80
2013,06,24,13,38,15.80
2013,06,24,13,39,15.80
2013,06,24,13,40,15.90
2013,06,24,13,41,15.90
2013,06,24,13,42,15.90
2013,06,24,13,43,15.90
2013,06,24,13,44,16.10
2013,06,24,13,45,16.10
2013,06,24,13,46,16.10
2013,06,24,13,47,16.10
2013,06,24,13,48,16.10
2013,06,24,13,49,16.10
2013,06,24,13,50,16.10
2013,06,24,13,51,16.10
2013,06,24,13,52,16.10
2013,06,24,13,53,16.10
2013,06,24,13,54,16.20
2013,06,24,13,55,16.20
2013,06,24,13,56,16.20
2013,06,24,13,57,16.20
2013,06,24,13,58,16.20
2013,06,24,13,59,16.20
2013,06,24,14,00,16.20
2013,06,24,14,01,16.20
2013,06,24,14,02,16.20
2013,06,24,14,03,16.20
2013,06,24,14,04,16.20
2013,06,24,14,05,16.10
2013,06,24,14,06,16.20
2013,06,24,14,07,16.20
2013,06,24,14,08,16.20
2013,06,24,14,09,16.20
2013,06,24,14,10,16.30
2013,06,24,14,11,16.30
2013,06,24,14,12,16.30
2013,06,24,14,13,16.30
2013,06,24,14,14,16.30
2013,06,24,14,15,16.40
2013,06,24,14,16,16.40
2013,06,24,14,17,16.40
2013,06,24,14,18,16.40
2013,06,24,14,19,16.40
2013,06,24,14,20,16.40
2013,06,24,14,21,16.40
2013,06,24,14,22,16.60
2013,06,24,14,23,16.60
2013,06,24,14,24,16.60
2013,06,24,14,25,16.70
2013,06,24,14,26,16.70
2013,06,24,14,27,16.70
2013,06,24,14,28,16.70
2013,06,24,14,29,16.60
2013,06,24,14,30,16.60
2013,06,24,14,31,16.70
2013,06,24,14,32,16.70
2013,06,24,14,33,16.70
2013,06,24,14,34,16.70
2013,06,24,14,35,16.70
2013,06,24,14,36,16.70
2013,06,24,14,37,16.70
2013,06,24,14,38,16.70
2013,06,24,14,39,16.70
2013,06,24,14,40,16.70
2013,06,24,14,41,16.70
2013,06,24,14,42,16.70
2013,06,24,14,43,16.80
2013,06,24,14,44,16.80
2013,06,24,14,45,16.90
2013,06,24,14,46,16.90
2013,06,24,14,47,16.90
2013,06,24,14,48,16.90
2013,06,24,14,49,16.90
2013,06,24,14,50,16.90
2013,06,24,14,51,16.90
2013,06,24,14,52,16.90
2013,06,24,14,53,16.90
2013,06,24,14,54,17.00
2013,06,24,14,55,17.10
2013,06,24,14,56,17.20
2013,06,24,14,57,17.20
2013,06,24,14,58,17.20
2013,06,24,14,59,17.30
2013,06,24,15,00,17.30
2013,06,24,15,01,17.20
2013,06,24,15,02,17.20
2013,06,24,15,03,17.20
2013,06,24,15,04,17.10
2013,06,24,15,05,17.00
2013,06,24,15,06,17.00
2013,06,24,15,07,17.00
2013,06,24,15,08,17.00
2013,06,24,15,09,16.90
2013,06,24,15,10,16.80
2013,06,24,15,11,16.80
2013,06,24,15,12,16.70
2013,06,24,15,13,16.70
2013,06,24,15,14,16.70
2013,06,24,15,15,16.70
2013,06,24,15,16,16.70
2013,06,24,15,17,16.70
2013,06,24,15,18,16.70
2013,06,24,15,19,16.80
2013,06,24,15,20,16.80
2013,06,24,15,21,16.80
2013,06,24,15,22,16.80
2013,06,24,15,23,16.70
2013,06,24,15,24,16.70
2013,06,24,15,25,16.70
2013,06,24,15,26,16.70
2013,06,24,15,27,16.70
2013,06,24,15,28,16.70
2013,06,24,15,29,16.70
2013,06,24,15,30,16.70
2013,06,24,15,31,16.70
2013,06,24,15,32,16.70
2013,06,24,15,33,16.70
2013,06,24,15,34,16.70
2013,06,24,15,35,16.70
2013,06,24,15,36,16.70
2013,06,24,15,37,16.70
2013,06,24,15,38,16.80
2013,06,24,15,39,16.90
2013,06,24,15,40,16.90
2013,06,24,15,41,17.00
2013,06,24,15,42,17.10
2013,06,24,15,43,17.20
2013,06,24,15,44,17.20
2013,06,24,15,45,17.30
2013,06,24,15,46,17.30
2013,06,24,15,47,17.30
2013,06,24,15,48,17.50
2013,06,24,15,49,17.60
2013,06,24,15,50,17.60
2013,06,24,15,51,17.70
2013,06,24,15,52,17.60
2013,06,24,15,53,17.60
2013,06,24,15,54,17.60
2013,06,24,15,55,17.60
2013,06,24,15,56,17.60
2013,06,24,15,57,17.70
2013,06,24,15,58,17.80
2013,06,24,15,59,17.80
2013,06,24,16,00,17.80
2013,06,24,16,01,17.80
2013,06,24,16,02,17.70
2013,06,24,16,03,17.70
2013,06,24,16,04,17.70
2013,06,24,16,05,17.70
2013,06,24,16,06,17.60
2013,06,24,16,07,17.50
2013,06,24,16,08,17.50
2013,06,24,16,09,17.40
2013,06,24,16,10,17.30
2013,06,24,16,11,17.30
2013,06,24,16,12,17.30
2013,06,24,16,13,17.30
2013,06,24,16,14,17.30
2013,06,24,16,15,17.20
2013,06,24,16,16,17.20
2013,06,24,16,17,17.20
2013,06,24,16,18,17.20
2013,06,24,16,19,17.20
2013,06,24,16,20,17.20
2013,06,24,16,21,17.20
2013,06,24,16,22,17.10
2013,06,24,16,23,17.10
2013,06,24,16,24,17.10
2013,06,24,16,25,17.10
2013,06,24,16,26,17.10
2013,06,24,16,27,17.10
2013,06,24,16,28,17.10
2013,06,24,16,29,17.10
2013,06,24,16,30,17.10
2013,06,24,16,31,17.10
2013,06,24,16,32,17.10
2013,06,24,16,33,17.10
2013,06,24,16,34,17.10
2013,06,24,16,35,17.00
2013,06,24,16,36,17.10
2013,06,24,16,37,17.10
2013,06,24,16,38,17.10
2013,06,24,16,39,17.10
2013,06,24,16,40,17.10
2013,06,24,16,41,17.10
2013,06,24,16,42,17.00
2013,06,24,16,43,17.00
2013,06,24,16,44,17.00
2013,06,24,16,45,17.00
2013,06,24,16,46,17.00
2013,06,24,16,47,17.00
2013,06,24,16,48,16.90
2013,06,24,16,49,16.90
2013,06,24,16,50,16.90
2013,06,24,16,51,16.90
2013,06,24,16,52,16.90
2013,06,24,16,53,16.90
2013,06,24,16,54,16.90
2013,06,24,16,55,16.90
2013,06,24,16,56,16.90
2013,06,24,16,57,16.90
2013,06,24,16,58,17.00
2013,06,24,16,59,17.00
2013,06,24,17,00,17.00
2013,06,24,17,01,17.00
2013,06,24,17,02,17.00
2013,06,24,17,03,16.90
2013,06,24,17,04,16.90
2013,06,24,17,05,16.90
2013,06,24,17,06,16.90
2013,06,24,17,07,16.80
2013,06,24,17,08,16.80
2013,06,24,17,09,16.80
2013,06,24,17,10,16.80
2013,06,24,17,11,16.80
2013,06,24,17,12,16.80
2013,06,24,17,13,16.80
2013,06,24,17,14,16.80
2013,06,24,17,15,16.80
2013,06,24,17,16,16.80
2013,06,24,17,17,16.90
2013,06,24,17,18,16.90
2013,06,24,17,19,16.90
2013,06,24,17,20,16.90
2013,06,24,17,21,16.90
2013,06,24,17,22,16.90
2013,06,24,17,23,16.90
2013,06,24,17,24,16.90
2013,06,24,17,25,17.00
2013,06,24,17,26,17.00
2013,06,24,17,27,16.90
2013,06,24,17,28,16.90
2013,06,24,17,29,16.90
2013,06,24,17,30,16.90
2013,06,24,17,31,16.90
2013,06,24,17,32,16.90
2013,06,24,17,33,16.90
2013,06,24,17,34,16.80
2013,06,24,17,35,16.90
2013,06,24,17,36,16.90
2013,06,24,17,37,16.80
2013,06,24,17,38,16.80
2013,06,24,17,39,16.80
2013,06,24,17,40,16.80
2013,06,24,17,41,16.80
2013,06,24,17,42,16.80
2013,06,24,17,43,16.80
2013,06,24,17,44,16.70
2013,06,24,17,45,16.70
2013,06,24,17,46,16.70
2013,06,24,17,47,16.70
2013,06,24,17,48,16.70
2013,06,24,17,49,16.70
2013,06,24,17,50,16.70
2013,06,24,17,51,16.70
2013,06,24,17,52,16.70
2013,06,24,17,53,16.70
2013,06,24,17,54,16.70
2013,06,24,17,55,16.70
2013,06,24,17,56,16.70
2013,06,24,17,57,16.70
2013,06,24,17,58,16.70
2013,06,24,17,59,16.70
2013,06,24,18,00,16.70
2013,06,24,18,01,16.60
2013,06,24,18,02,16.60
2013,06,24,18,03,16.60
2013,06,24,18,04,16.60
2013,06,24,18,05,16.60
2013,06,24,18,06,16.40
2013,06,24,18,07,16.40
2013,06,24,18,08,16.40
2013,06,24,18,09,16.40
2013,06,24,18,10,16.40
2013,06,24,18,11,16.40
2013,06,24,18,12,16.40
2013,06,24,18,13,16.40
2013,06,24,18,14,16.40
2013,06,24,18,15,16.30
2013,06,24,18,16,16.30
2013,06,24,18,17,16.30
2013,06,24,18,18,16.30
2013,06,24,18,19,16.30
2013,06,24,18,20,16.30
2013,06,24,18,21,16.30
2013,06,24,18,22,16.30
2013,06,24,18,23,16.30
2013,06,24,18,24,16.30
2013,06,24,18,25,16.30
2013,06,24,18,26,16.30
2013,06,24,18,27,16.30
2013,06,24,18,28,16.30
2013,06,24,18,29,16.30
2013,06,24,18,30,16.30
2013,06,24,18,31,16.30
2013,06,24,18,32,16.30
2013,06,24,18,33,16.30
2013,06,24,18,34,16.30
2013,06,24,18,35,16.30
2013,06,24,18,36,16.30
2013,06,24,18,37,16.30
2013,06,24,18,38,16.30
2013,06,24,18,39,16.30
2013,06,24,18,40,16.30
2013,06,24,18,41,16.30
2013,06,24,18,42,16.30
2013,06,24,18,43,16.30
2013,06,24,18,44,16.30
2013,06,24,18,45,16.30
2013,06,24,18,46,16.30
2013,06,24,18,47,16.30
2013,06,24,18,48,16.30
2013,06,24,18,49,16.30
2013,06,24,18,50,16.30
2013,06,24,18,51,16.30
2013,06,24,18,52,16.30
2013,06,24,18,53,16.30
2013,06,24,18,54,16.30
2013,06,24,18,55,16.30
2013,06,24,18,56,16.40
2013,06,24,18,57,16.40
2013,06,24,18,58,16.40
2013,06,24,18,59,16.40
2013,06,24,19,00,16.40
2013,06,24,19,01,16.40
2013,06,24,19,02,16.40
2013,06,24,19,03,16.40
2013,06,24,19,04,16.40
2013,06,24,19,05,16.40
2013,06,24,19,06,16.40
2013,06,24,19,07,16.40
2013,06,24,19,08,16.40
2013,06,24,19,09,16.30
2013,06,24,19,10,16.30
2013,06,24,19,11,16.30
2013,06,24,19,12,16.30
2013,06,24,19,13,16.30
2013,06,24,19,14,16.30
2013,06,24,19,15,16.30
2013,06,24,19,16,16.30
2013,06,24,19,17,16.30
2013,06,24,19,18,16.30
2013,06,24,19,19,16.20
2013,06,24,19,20,16.20
2013,06,24,19,21,16.20
2013,06,24,19,22,16.20
2013,06,24,19,23,16.20
2013,06,24,19,24,16.20
2013,06,24,19,25,16.20
2013,06,24,19,26,16.20
2013,06,24,19,27,16.20
2013,06,24,19,28,16.20
2013,06,24,19,29,16.20
2013,06,24,19,30,16.20
2013,06,24,19,31,16.20
2013,06,24,19,32,16.20
2013,06,24,19,33,16.20
2013,06,24,19,34,16.20
2013,06,24,19,35,16.20
2013,06,24,19,36,16.20
2013,06,24,19,37,16.20
2013,06,24,19,38,16.20
2013,06,24,19,39,16.10
2013,06,24,19,40,16.10
2013,06,24,19,41,16.10
2013,06,24,19,42,16.10
2013,06,24,19,43,16.10
2013,06,24,19,44,16.10
2013,06,24,19,45,16.10
2013,06,24,19,46,16.10
2013,06,24,19,47,16.10
2013,06,24,19,48,16.10
2013,06,24,19,49,16.10
2013,06,24,19,50,16.10
2013,06,24,19,51,16.10
2013,06,24,19,52,16.10
2013,06,24,19,53,16.10
2013,06,24,19,54,16.10
2013,06,24,19,55,16.10
2013,06,24,19,56,16.10
2013,06,24,19,57,16.10
2013,06,24,19,58,16.10
2013,06,24,19,59,16.10
2013,06,24,20,00,16.10
2013,06,24,20,01,16.10
2013,06,24,20,02,16.10
2013,06,24,20,03,16.10
2013,06,24,20,04,16.10
2013,06,24,20,05,16.10
2013,06,24,20,06,16.10
2013,06,24,20,07,16.10
2013,06,24,20,08,16.10
2013,06,24,20,09,16.10
2013,06,24,20,10,16.10
2013,06,24,20,11,16.10
2013,06,24,20,12,16.10
2013,06,24,20,13,16.10
2013,06,24,20,14,16.10
2013,06,24,20,15,16.10
2013,06,24,20,16,16.10
2013,06,24,20,17,16.10
2013,06,24,20,18,16.10
2013,06,24,20,19,16.10
2013,06,24,20,20,16.10
2013,06,24,20,21,16.10
2013,06,24,20,22,16.10
2013,06,24,20,23,16.10
2013,06,24,20,24,16.10
2013,06,24,20,25,16.10
2013,06,24,20,26,16.10
2013,06,24,20,27,16.10
2013,06,24,20,28,16.10
2013,06,24,20,29,15.90
2013,06,24,20,30,15.90
2013,06,24,20,31,15.90
2013,06,24,20,32,15.90
2013,06,24,20,33,15.90
2013,06,24,20,34,15.90
2013,06,24,20,35,15.90
2013,06,24,20,36,15.90
2013,06,24,20,37,15.90
2013,06,24,20,38,15.90
2013,06,24,20,39,15.90
2013,06,24,20,40,15.80
2013,06,24,20,41,15.80
2013,06,24,20,42,15.80
2013,06,24,20,43,15.80
2013,06,24,20,44,15.80
2013,06,24,20,45,15.80
2013,06,24,20,46,15.80
2013,06,24,20,47,15.80
2013,06,24,20,48,15.80
2013,06,24,20,49,15.80
2013,06,24,20,50,15.80
2013,06,24,20,51,15.80
2013,06,24,20,52,15.80
2013,06,24,20,53,15.80
2013,06,24,20,54,15.80
2013,06,24,20,55,15.80
2013,06,24,20,56,15.80
2013,06,24,20,57,15.80
2013,06,24,20,58,15.80
2013,06,24,20,59,15.80
2013,06,24,21,00,15.80
2013,06,24,21,01,15.70
2013,06,24,21,02,15.70
2013,06,24,21,03,15.70
2013,06,24,21,04,15.60
2013,06,24,21,05,15.60
2013,06,24,21,06,15.60
2013,06,24,21,07,15.60
2013,06,24,21,08,15.50
2013,06,24,21,09,15.50
2013,06,24,21,10,15.50
2013,06,24,21,11,15.50
2013,06,24,21,12,15.50
2013,06,24,21,13,15.40
2013,06,24,21,14,15.40
2013,06,24,21,15,15.40
2013,06,24,21,16,15.40
2013,06,24,21,17,15.30
2013,06,24,21,18,15.30
2013,06,24,21,19,15.30
2013,06,24,21,20,15.30
2013,06,24,21,21,15.30
2013,06,24,21,22,15.30
2013,06,24,21,23,15.30
2013,06,24,21,24,15.30
2013,06,24,21,25,15.30
2013,06,24,21,26,15.30
2013,06,24,21,27,15.30
2013,06,24,21,28,15.20
2013,06,24,21,29,15.20
2013,06,24,21,30,15.20
2013,06,24,21,31,15.20
2013,06,24,21,32,15.20
2013,06,24,21,33,15.10
2013,06,24,21,34,15.10
2013,06,24,21,35,15.10
2013,06,24,21,36,15.10
2013,06,24,21,37,15.00
2013,06,24,21,38,15.00
2013,06,24,21,39,15.00
2013,06,24,21,40,15.00
2013,06,24,21,41,15.00
2013,06,24,21,42,15.00
2013,06,24,21,43,14.90
2013,06,24,21,44,14.90
2013,06,24,21,45,14.90
2013,06,24,21,46,14.90
2013,06,24,21,47,14.80
2013,06,24,21,48,14.80
2013,06,24,21,49,14.80
2013,06,24,21,50,14.80
2013,06,24,21,51,14.80
2013,06,24,21,52,14.80
2013,06,24,21,53,14.80
2013,06,24,21,54,14.70
2013,06,24,21,55,14.70
2013,06,24,21,56,14.70
2013,06,24,21,57,14.60
2013,06,24,21,58,14.60
2013,06,24,21,59,14.60
2013,06,24,22,00,14.60
2013,06,24,22,01,14.50
2013,06,24,22,02,14.50
2013,06,24,22,03,14.50
2013,06,24,22,04,14.50
2013,06,24,22,05,14.40
2013,06,24,22,06,14.40
2013,06,24,22,07,14.40
2013,06,24,22,08,14.40
2013,06,24,22,09,14.30
2013,06,24,22,10,14.30
2013,06,24,22,11,14.30
2013,06,24,22,12,14.30
2013,06,24,22,13,14.20
2013,06,24,22,14,14.20
2013,06,24,22,15,14.20
2013,06,24,22,16,14.20
2013,06,24,22,17,14.20
2013,06,24,22,18,14.20
2013,06,24,22,19,14.10
2013,06,24,22,20,14.10
2013,06,24,22,21,14.10
2013,06,24,22,22,14.00
2013,06,24,22,23,14.00
2013,06,24,22,24,14.00
2013,06,24,22,25,14.00
2013,06,24,22,26,14.00
2013,06,24,22,27,14.00
2013,06,24,22,28,14.00
2013,06,24,22,29,14.00
2013,06,24,22,30,14.00
2013,06,24,22,31,13.90
2013,06,24,22,32,13.90
2013,06,24,22,33,13.90
2013,06,24,22,34,13.90
2013,06,24,22,35,13.90
2013,06,24,22,36,13.90
2013,06,24,22,37,13.90
2013,06,24,22,38,13.90
2013,06,24,22,39,13.90
2013,06,24,22,40,13.90
2013,06,24,22,41,14.00
2013,06,24,22,42,14.00
2013,06,24,22,43,14.00
2013,06,24,22,44,14.00
2013,06,24,22,45,14.00
2013,06,24,22,46,14.10
2013,06,24,22,47,14.10
2013,06,24,22,48,14.10
2013,06,24,22,49,14.10
2013,06,24,22,50,14.10
2013,06,24,22,51,14.10
2013,06,24,22,52,14.00
2013,06,24,22,53,14.00
2013,06,24,22,54,14.00
2013,06,24,22,55,14.00
2013,06,24,22,56,14.00
2013,06,24,22,57,14.00
2013,06,24,22,58,13.90
2013,06,24,22,59,13.90
2013,06,24,23,00,13.90
2013,06,24,23,01,13.90
2013,06,24,23,02,13.90
2013,06,24,23,03,13.80
2013,06,24,23,04,13.80
2013,06,24,23,05,13.80
2013,06,24,23,06,13.80
2013,06,24,23,07,13.70
2013,06,24,23,08,13.70
2013,06,24,23,09,13.70
2013,06,24,23,10,13.70
2013,06,24,23,11,13.70
2013,06,24,23,12,13.70
2013,06,24,23,13,13.70
2013,06,24,23,14,13.70
2013,06,24,23,15,13.70
2013,06,24,23,16,13.70
2013,06,24,23,17,13.70
2013,06,24,23,18,13.70
2013,06,24,23,19,13.70
2013,06,24,23,20,13.70
2013,06,24,23,21,13.70
2013,06,24,23,22,13.70
2013,06,24,23,23,13.70
2013,06,24,23,24,13.70
2013,06,24,23,25,13.70
2013,06,24,23,26,13.70
2013,06,24,23,27,13.70
2013,06,24,23,28,13.70
2013,06,24,23,29,13.70
2013,06,24,23,30,13.70
2013,06,24,23,31,13.70
2013,06,24,23,32,13.70
2013,06,24,23,33,13.70
2013,06,24,23,34,13.70
2013,06,24,23,35,13.70
2013,06,24,23,36,13.70
2013,06,24,23,37,13.70
2013,06,24,23,38,13.70
2013,06,24,23,39,13.80